Location: Braden Valley Church
(38.0012°N, 88.6106°W)
Time: 02:38:37
(UTC+00:00)

USA 215 - Pass Details

Date: 08 December 2021
Orbit: 1099 x 1109 km, 123.0° (Epoch: 14 January)

Event Time Altitude Azimuth Distance (km) Brightness Sun altitude
Rises 11:58:20 0° 119° (ESE) 3,910 8.1 -11.6°
Reaches altitude 10° 12:00:50 10° 115° (ESE) 2,953 7.1 -11.1°
Maximum altitude 12:07:12 58° 38° (NE) 1,264 3.7 -9.9°
Drops below altitude 10° 12:13:34 10° 322° (NW) 2,958 5.0 -8.8°
Enters shadow 12:14:33 - 320° (NW) 3,328 5.2 -8.6°
